Regional Weather Roundup
Issued by NWS

Home | Current Version | Previous Version | Text Only | Print | Product List | Glossary On
Versions: 1 2 3 4 5 6 7 8 9 10 11 12 13 14 15 16 17 18 19 20 21 22 23 24 25 26 27 28 29 30 31 32 33 34 35 36 37 38 39 40 41 42 43 44 45 46 47 48 49 50
000
ASUS43 KMPX 300501
RWRMN
WEATHER ROUNDUP FOR MINNESOTA
NATIONAL WEATHER SERVICE TWIN CITIES/CHANHASSEN MN
1200 AM CDT THU JUL 30 2015


NOTE: "FAIR" INDICATES FEW OR NO CLOUDS BELOW 12,000 FEET WITH NO
SIGNIFICANT WEATHER AND/OR OBSTRUCTIONS TO VISIBILITY. N/A MEANS
CURRENT SKY AND/OR WEATHER CONDITIONS ARE NOT AVAILABLE.

MNZ060>063-068>070-300600-
   Twin Cities Metro

CITY           SKY/WX    TMP DP  RH WIND       PRES   REMARKS
TWIN CITIES    CLEAR     72  56  57 SW7       29.99R
ST PAUL        CLEAR     72  56  57 W8        29.98S
CRYSTAL        CLEAR     72  57  59 W9        29.98R
BLAINE         CLEAR     73  57  56 W8        29.98S
LAKEVILLE      CLEAR     64  55  72 W5        30.02R
EDEN PRAIRIE   CLEAR     65  56  72 SW7       30.00R
SOUTH ST PAUL  CLEAR     70  55  59 W6        29.99R
LAKE ELMO      FAIR      68  55  64 W7        29.99S
$$
MNZ001>005-007-008-013>017-022>024-027-028-300600-
   Northwest Minnesota

CITY           SKY/WX    TMP DP  RH WIND       PRES   REMARKS
BEMIDJI        CLEAR     65  55  70 W9        29.91S
HALLOCK        CLEAR     63  57  82 W6        29.88S
ROSEAU         CLEAR     64  55  72 W9        29.86R
WARROAD        CLEAR     63  55  77 W8        29.86R
THIEF RVR FALL PTCLDY    64  57  77 W8        29.91R
CROOKSTON      CLEAR     64  57  77 W9        29.93R
FOSSTON        CLEAR     59  55  88 SW7       29.94R
DETROIT LAKES  CLEAR     70  55  60 W9        29.98S
MOORHEAD       CLEAR     64  57  77 SW8       29.97S
PARK RAPIDS    CLEAR     65  55  70 W9        29.95R
MAHNOMEN       FAIR      64  58  78 W8        29.95R
$$
MNZ006-009>011-018-025>026-300600-
   North Central Minnesota

CITY           SKY/WX    TMP DP  RH WIND       PRES   REMARKS
BAUDETTE       CLEAR     63  53  70 W8        29.83R
FLAG ISLAND    CLEAR     66  57  72 W18G25    29.81R
INTL FALLS     MOCLDY    64  54  69 W10       29.80R
WASKISH        CLEAR     70  57  64 W17       29.87R
BIG FORK       PTCLDY    61  52  72 SW6       29.87R
LONGVILLE      CLEAR     66  55  68 W6        29.92R
GRAND RAPIDS   PTCLDY    68  52  56 W9G17     29.90R
CRANE LAKE     PTCLDY    64  54  68 SW3       29.80F
ORR            PTCLDY    63  50  63 W7        29.80S
COOK           PTCLDY    63  52  67 W8        29.84R
WALKER         FAIR      66  55  68 W7        29.92R
$$
MNZ012-019>021-037-300600-
   Northeast Minnesota

CITY           SKY/WX    TMP DP  RH WIND       PRES   REMARKS
DULUTH         PTCLDY    63  53  70 W12       29.87R
ELY            MOCLDY    66  52  59 W10       29.80S
HIBBING        CLEAR     65  51  60 W6        29.86R
EVELETH        CLEAR     61  52  72 W6        29.86S
DULUTH HARBOR  CLEAR     70  57  64 SW15      29.86R
TWO HARBORS    CLEAR     66  57  72 W6        29.82S
SILVER BAY     PTCLDY    64  54  68 CALM      29.80R
GRAND MARAIS     N/A     65  54  67 VRB7G22   29.71S
G MARAIS ARPRT   N/A     63  52  67 W14G25    29.76R
$$
MNZ029>031-032-039>041-046>048-054>057-064-300600-
   West Central Minnesota

CITY           SKY/WX    TMP DP  RH WIND       PRES   REMARKS
FERGUS FALLS   PTCLDY    63  55  77 W7        29.99R
WHEATON        CLEAR     63  54  72 W8        30.03S
MORRIS         CLEAR     66  55  68 W10       30.01S
ALEXANDRIA     CLEAR     67  55  65 W9        30.02R
ELBOW LAKE     FAIR      64  56  74 W8        30.00S
WADENA         CLEAR     64  55  72 W6        29.97R
GLENWOOD       CLEAR     64  55  72 W9        30.03R
APPLETON       CLEAR     63  55  77 SW8       30.03S
BENSON         CLEAR     63  55  77 W7        30.03S
ORTONVILLE     CLEAR     66  54  63 W7        30.04S
MADISON        CLEAR     63  54  72 W6        30.05S
WILLMAR        FAIR      61  57  88 W7        30.05R
$$
MNZ033>034-036-042>043-049>051-058-059-300600-
   Central Minnesota

CITY           SKY/WX    TMP DP  RH WIND       PRES   REMARKS
ST CLOUD       CLEAR     67  55  65 W8        29.98R
SAUK CENTRE    FAIR      64  56  75 W8        30.01R
PAYNESVILLE    CLEAR     61  55  82 SW9       30.02S
AITKIN         PTCLDY    70  55  60 SW5       29.92R
PINE RIVER     CLEAR     64  55  72 SW3       29.97R
BRAINERD       CLEAR     68  56  65 W8        29.95R
STAPLES        CLEAR     64  54  68 W6        29.96S
LONG PRAIRIE   FAIR      63  55  77 S5        30.00S
LITTLE FALLS   CLEAR     66  54  63 W3        29.98R
LITCHFIELD     CLEAR     66  57  72 W5        30.03R
BUFFALO        CLEAR     67  57  68 SW5       30.01S
MAPLE LAKE     CLEAR     68  59  73 W3        30.01R
$$
MNZ037-044-045-052-053-300600-
   East Central Minnesota

CITY           SKY/WX    TMP DP  RH WIND       PRES   REMARKS
PRINCETON      CLEAR     70  55  60 W7        29.98R
MORA           CLEAR     64  54  68 W6        29.97R
CAMBRIDGE      CLEAR     72  55  56 W6        29.95S
RUSH CITY      PTCLDY    67  55  66 W7        29.95S
MOOSE LAKE     CLEAR     66  52  59 W7        29.90R
HINCKLEY       FAIR      64  55  72 SW7       29.94R
CLOQUET        MOCLDY    66  54  63 SW8       29.89R
MCGREGOR       PTCLDY    68  54  60 W8        29.92R
$$
MNZ071>073-080-081-089-090-097-098-300600-
   Southwest Minnesota

CITY           SKY/WX    TMP DP  RH WIND       PRES   REMARKS
MONTEVIDEO     CLEAR     64  52  63 W5        30.06S
GRANITE FALLS  CLEAR     60  56  87 W8        30.06S
CANBY          CLEAR     66  54  65 SW7       30.07S
MARSHALL       CLEAR     63  54  72 W10       30.08S
REDWOOD FALLS  CLEAR     68  55  63 W7        30.04R
OLIVIA         CLEAR     61  52  72 W7        30.04R
PIPESTONE      CLEAR     63  57  82 CALM      30.12R
WINDOM         CLEAR     63  57  82 CALM      30.09S
WORTHINGTON    CLEAR     64  55  72 SW8       30.12R
JACKSON        CLEAR     68  59  73 SW6       30.11R
TRACY          CLEAR     64  57  77 W7        30.09R
SLAYTON        CLEAR     63  57  81 CALM      30.12R
$$
MNZ065>067-074>077-082>085-091>093-300600-
   South Central Minnesota

CITY           SKY/WX    TMP DP  RH WIND       PRES   REMARKS
MANKATO        CLEAR     68  54  60 W10       30.05R
NEW ULM        CLEAR     61  55  82 W7        30.05R
ST JAMES       CLEAR     64  61  88 SW6       30.08R
FAIRMONT       CLEAR     66  55  68 W8        30.08R
GLENCOE        CLEAR     65  58  76 W6        30.02R
FARIBAULT      CLEAR     66  57  72 W3        30.04R
OWATONNA       CLEAR     64  55  72 SW9       30.05R
WASECA         CLEAR     59  55  88 SW5       30.06S
ALBERT LEA     CLEAR     68  57  68 W6        30.07S
$$
MNZ078>079-086>088-094>096-300600-
   Southeast Minnesota

CITY           SKY/WX    TMP DP  RH WIND       PRES   REMARKS
ROCHESTER      CLEAR     63  57  81 W10       30.06R
RED WING       CLEAR     70  55  60 CALM      29.99R
STANTON        CLEAR     68  55  64 SW7       30.01R
DODGE CENTER   CLEAR     61  55  82 W6        30.06R
WINONA         CLEAR     73  55  53 W7G17     30.00R
AUSTIN         CLEAR     66  57  72 SW6       30.06S
PRESTON        CLEAR     65  56  74 W10       30.06R
$$
ABBREVIATIONS USED IN REMARKS
   TC - TEMPERATURES IN CELSIUS
  WCI - WIND CHILL INDEX
   HX - HEAT INDEX
  VSB - VISIBILITY
$$


USA.gov is the U.S. government's official web portal to all federal, state and local government web resources and services.